Regional Weather Roundup
Issued by NWS

Home | Current Version | Previous Version | Graphics & Text | Print | Product List | Glossary On
Versions: 1 2 3 4 5 6 7 8 9 10 11 12 13 14 15 16 17 18 19 20 21 22 23 24 25 26 27 28 29 30 31 32 33 34 35 36 37 38 39 40 41 42 43 44 45 46 47 48 49 50
000
ASUS43 KFSD 291302
RWRSD

WEATHER ROUNDUP FOR SOUTH DAKOTA
NATIONAL WEATHER SERVICE SIOUX FALLS SD
800 AM CDT MON MAY 29 2017

NOTE: "FAIR" INDICATES FEW OR NO CLOUDS BELOW 12,000 FEET WITH NO
SIGNIFICANT WEATHER AND/OR OBSTRUCTIONS TO VISIBILITY.


SDZ001>005-009-010-012>017-291400-
NORTHWEST AND NORTH CENTRAL SOUTH DAKOTA

CITY           SKY/WX    TMP DP  RH WIND       PRES   REMARKS
BUFFALO          N/A     50  37  61 NW12      30.09S
FAITH            N/A     48  38  68 NW16      30.11S
MOBRIDGE       PTSUNNY   52  41  66 NW16      30.01S
$$

SDZ012>016-024>037-041>051-057-063-072>074-291400-
SOUTHWEST AND SOUTH CENTRAL SOUTH DAKOTA

CITY           SKY/WX    TMP DP  RH WIND       PRES   REMARKS
RAPID CTY ARPT SUNNY     50  37  61 NW6       30.15R
PIERRE         SUNNY     53  40  61 NW20      30.05R
CUSTER         SUNNY     48  26  42 NW6       30.19R
ELLSWORTH AFB  SUNNY     53  36  53 NW9       30.15R
PHILIP         SUNNY     51  41  68 NW9       30.12R
PINE RIDGE     SUNNY     47  45  93 CALM      30.17R
SPEARFISH      FAIR      48  34  57 W5        30.18S
WINNER         FAIR      52  42  69 NW10      30.07R
$$

SDZ004>011-016>023-039-040-291400-
NORTHEAST SOUTH DAKOTA

CITY           SKY/WX    TMP DP  RH WIND       PRES   REMARKS
ABERDEEN       MOSUNNY   50  42  74 NW16      29.94S
WATERTOWN      PTSUNNY   50  45  83 NW17G25   29.90S
BROOKINGS      SUNNY     51  45  79 NW15G22   29.92R
SISSETON         N/A     55  48  77 N21       29.86S
$$

SDZ017-020-022-023-036>040-048>070-291400-
SOUTHEAST SOUTH DAKOTA

CITY           SKY/WX    TMP DP  RH WIND       PRES   REMARKS
SIOUX FALLS    SUNNY     55  46  71 NW15      29.94S
HURON          SUNNY     53  43  68 NW17      29.97R
CHAMBERLAIN    SUNNY     53  43  69 W13       30.04R
MITCHELL       SUNNY     55  44  66 NW13      29.99R
YANKTON        SUNNY     56  46  69 NW9       30.00R
$$

ABBREVIATIONS USED IN REMARKS
   TC - TEMPERATURE IN CELSIUS
  WCI - WIND CHILL INDEX
   HX - HEAT INDEX
  VSB - VISIBILITY




USA.gov is the U.S. government's official web portal to all federal, state and local government web resources and services.